TimePST,TemperatureF,Dew PointF,Humidity,Sea Level PressureIn,VisibilityMPH,Wind Direction,Wind SpeedMPH,Gust SpeedMPH,PrecipitationIn,Events,Conditions,WindDirDegrees,DateUTC
12:56 AM,16.0,10.9,81,30.31,10.0,South,3.5,-,N/A,,Clear,190,2014-01-06 08:56:00
1:56 AM,18.0,10.9,74,30.31,10.0,SSE,5.8,-,N/A,,Clear,160,2014-01-06 09:56:00
2:56 AM,17.1,12.0,81,30.32,10.0,Calm,Calm,-,N/A,,Clear,0,2014-01-06 10:56:00
3:56 AM,16.0,10.0,77,30.32,10.0,Calm,Calm,-,N/A,,Clear,0,2014-01-06 11:56:00
4:56 AM,14.0,10.0,84,30.31,10.0,Calm,Calm,-,N/A,,Clear,0,2014-01-06 12:56:00
5:56 AM,16.0,10.0,77,30.30,10.0,Calm,Calm,-,N/A,,Clear,0,2014-01-06 13:56:00
6:56 AM,15.1,10.0,80,30.31,10.0,SW,3.5,-,N/A,,Mostly Cloudy,230,2014-01-06 14:56:00
7:56 AM,15.1,10.0,80,30.31,10.0,SE,4.6,-,N/A,,Mostly Cloudy,140,2014-01-06 15:56:00
8:56 AM,28.0,16.0,61,30.32,10.0,Calm,Calm,-,N/A,,Overcast,0,2014-01-06 16:56:00
9:56 AM,30.9,15.1,52,30.31,10.0,Calm,Calm,-,N/A,,Overcast,0,2014-01-06 17:56:00
10:56 AM,35.1,12.9,40,30.28,10.0,Calm,Calm,-,N/A,,Overcast,0,2014-01-06 18:56:00
11:56 AM,37.9,14.0,38,30.26,10.0,NE,3.5,-,N/A,,Overcast,50,2014-01-06 19:56:00
12:56 PM,39.0,12.9,34,30.22,10.0,Variable,4.6,-,N/A,,Overcast,0,2014-01-06 20:56:00
1:56 PM,39.9,14.0,35,30.21,10.0,NNE,5.8,-,N/A,,Overcast,30,2014-01-06 21:56:00
2:56 PM,37.9,15.1,39,30.19,10.0,NE,5.8,-,N/A,,Overcast,50,2014-01-06 22:56:00
3:56 PM,37.0,15.1,41,30.18,10.0,North,4.6,-,N/A,,Overcast,10,2014-01-06 23:56:00
4:56 PM,32.0,15.1,50,30.17,10.0,North,4.6,-,N/A,,Overcast,10,2014-01-07 00:56:00
5:56 PM,30.9,15.1,52,30.16,10.0,NE,4.6,-,N/A,,Overcast,50,2014-01-07 01:56:00
6:56 PM,30.9,17.1,57,30.16,10.0,Calm,Calm,-,N/A,,Overcast,0,2014-01-07 02:56:00
7:56 PM,30.9,17.1,57,30.16,10.0,Calm,Calm,-,N/A,,Overcast,0,2014-01-07 03:56:00
8:56 PM,30.0,18.0,61,30.15,10.0,SW,3.5,-,N/A,,Overcast,220,2014-01-07 04:56:00
9:56 PM,28.9,18.0,64,30.16,10.0,ESE,3.5,-,N/A,,Mostly Cloudy,110,2014-01-07 05:56:00
10:56 PM,30.9,17.1,57,30.14,10.0,Calm,Calm,-,N/A,,Mostly Cloudy,0,2014-01-07 06:56:00
11:56 PM,28.9,18.0,64,30.13,10.0,South,3.5,-,N/A,,Scattered Clouds,180,2014-01-07 07:56:00